[[{"header":{"parameterUnit":"m.s-1","parameterCategory":2,"la1":30.2991,"la2":30.254,"lo1":-89.0895,"lo2":-89.0444,"dy":0.0017,"dx":0.0017,"nx":28,"ny":28,"refTime":"2025-09-14T03:00:00:Z","depth":"0","parameterNumber":2,"parameterNumberName":"U-component_of_CURRENTS"},"data":[0,0,0,0,0,0,0,0,0,0,0,0,0,0,0,0,0,0,0,0,0,0,0,0,0,0,0,0,0,0,0,0,0,0,0,0,0,0,0,0,0,0,0,0,0,0,0,0,0,0,0,0,0,0,0,0,0,0,0.2091,0.2093,0,0.2141,0.2141,0.2141,0.2117,0.2117,0.2116,0.2116,0.21,0.21,0.21,0,0,0,0,0,0,0,0,0,0,0,0,0,0.1987,0.1988,0.2091,0.2093,0.2094,0.2141,0.2141,0.2141,0.2118,0.2117,0.2116,0.2116,0.21,0.21,0.21,0,0,0,0,0,0,0,0,0,0,0,0,0,0.2026,0.1988,0.2091,0.2094,0.2095,0.2141,0.2141,0.2141,0.2118,0.2117,0.2116,0.2115,0.21,0.21,0.21,0.2117,0,0,0.2101,0.2101,0,0,0,0,0,0,0,0,0.2024,0.2029,0.2092,0.2094,0.2096,0.2129,0.2099,0.2132,0.2118,0.2101,0.2116,0.2115,0.211,0.2109,0.211,0.2116,0.2115,0.2101,0.2101,0.2101,0.2101,0,0,0,0,0,0,0,0.2021,0.2027,0.2103,0.2094,0.2096,0.2097,0.2101,0.2105,0.2102,0.2102,0.2103,0.2121,0.2109,0.2109,0.2109,0.2115,0.2101,0.2101,0.2101,0.2101,0.2137,0.2138,0,0,0,0,0,0,0.2032,0.2025,0.2101,0.2105,0.2066,0.21,0.2104,0.2113,0.2103,0.2104,0.2122,0.212,0.211,0.2109,0.2108,0.2133,0.2101,0.2101,0.2101,0.2136,0.2138,0.2139,0,0,0,0,0,0,0.2029,0.2038,0.21,0.2073,0.2082,0.2103,0.2113,0.2114,0.212,0.212,0.2117,0.2128,0.2109,0.2108,0.2112,0.2132,0.2101,0.2101,0.2135,0.2137,0.2138,0.2178,0,0,0,0,0,0,0.2026,0.2036,0.2038,0.2073,0.2084,0.2119,0.2115,0.2116,0.2136,0.2134,0.2125,0.2122,0.2108,0.2112,0.2112,0.2131,0.2101,0.2134,0.2136,0.2138,0.2175,0.218,0.2185,0,0,0,0,0,0.2022,0.2014,0.2038,0.2047,0.2088,0.212,0.2124,0.2132,0.2138,0.2134,0.2134,0.2123,0.2123,0.2113,0.2113,0.2132,0.2133,0.2136,0.2137,0.2173,0.2179,0.2185,0,0,0,0,0,0,0.1957,0.2014,0.2039,0.2047,0.2087,0.2119,0.2112,0.214,0.214,0.2133,0.2132,0.2129,0.2135,0.2133,0.2122,0.2148,0.2128,0.213,0.2155,0.2161,0.2165,0.2223,0.2101,0,0,0,0,0,0.1954,0.1967,0.2027,0.2033,0.2048,0.2089,0.2103,0.2122,0.2136,0.2135,0.2141,0.2143,0.2145,0.2152,0.2144,0.2166,0.224,0.2179,0.2184,0.2188,0.2235,0.2338,0.2358,0.2145,0.2145,0.2145,0,0,0.1934,0.1967,0.1975,0.2023,0.2043,0.2089,0.2091,0.2112,0.2154,0.2134,0.2164,0.2152,0.2151,0.2164,0.2169,0.2166,0.2294,0.2191,0.2194,0.2241,0.2343,0.2364,0.2383,0.2147,0.2146,0.2146,0,0,0.1928,0.1926,0.1957,0.1989,0.2043,0.2068,0.2084,0.213,0.2142,0.2175,0.2173,0.2192,0.2186,0.2212,0.2218,0.2254,0.2305,0.2232,0.2316,0.2414,0.2433,0.2451,0.2607,0.2639,0.2246,0.2246,0.2247,0,0.1909,0.1975,0.1967,0.2015,0.2065,0.2069,0.2141,0.2141,0.2188,0.2227,0.2182,0.2242,0.2221,0.2297,0.2295,0.227,0.235,0.229,0.2424,0.2443,0.2461,0.2616,0.2651,0.2249,0.2248,0.2248,0.2248,0,0.1961,0.201,0.2018,0.2095,0.2124,0.2173,0.2204,0.2232,0.2245,0.2272,0.2329,0.2313,0.2371,0.2346,0.2324,0.2442,0.247,0.2408,0.2416,0.2485,0.2644,0.2679,0.2252,0.2251,0.225,0.225,0,0,0.1982,0.2051,0.2071,0.2123,0.219,0.2217,0.2277,0.2362,0.2419,0.2419,0.2522,0.2506,0.2512,0.2525,0.2509,0.2581,0.2758,0.2552,0.2556,0.2722,0.3037,0.3086,0.3129,0.2712,0.2718,0.2722,0.3111,0,0.2064,0.2164,0.2195,0.2296,0.2356,0.2385,0.2438,0.2489,0.2519,0.2586,0.2594,0.2641,0.2571,0.2602,0.2667,0.2722,0.2847,0.2663,0.2934,0.2945,0.299,0.3169,0.3087,0.3428,0.3145,0.3151,0.3155,0,0.217,0.2222,0.2339,0.2424,0.2453,0.2494,0.2611,0.266,0.2732,0.2757,0.2825,0.282,0.2936,0.2835,0.3053,0.2938,0.3021,0.306,0.3075,0.314,0.3059,0.3305,0.3503,0.3336,0.321,0.3205,0.3201,0,0.2234,0.2342,0.2436,0.2467,0.2543,0.2601,0.2641,0.2718,0.2782,0.2878,0.2946,0.3045,0.3128,0.322,0.3305,0.3197,0.3554,0.3412,0.3567,0.3573,0.3573,0.3569,0.3657,0.3622,0.3621,0.362,0.3619,0,0.2346,0.2426,0.2454,0.2502,0.2593,0.2629,0.2739,0.2791,0.2896,0.2986,0.303,0.3147,0.3223,0.3401,0.3437,0.3663,0.3688,0.3673,0.3697,0.3586,0.3579,0.3485,0.3378,0.3634,0.3631,0.3628,0.3626,0,0.2429,0.2458,0.2547,0.2609,0.2623,0.2678,0.2774,0.2856,0.2946,0.3087,0.3132,0.3301,0.353,0.3656,0.3863,0.388,0.395,0.4114,0.4015,0.402,0.3933,0.3832,0.3929,0.3814,0.4355,0.4359,0.4362,0,0.2504,0.2543,0.2593,0.2633,0.2664,0.2735,0.2796,0.287,0.2955,0.3172,0.325,0.3525,0.3691,0.4069,0.4182,0.4392,0.4155,0.4425,0.4184,0.4011,0.3916,0.3699,0.3574,0.4225,0.4227,0.4228,0.4229,0,0.2626,0.2613,0.2671,0.2711,0.2761,0.2814,0.2889,0.2948,0.3061,0.3192,0.3382,0.3538,0.3928,0.4112,0.4422,0.4496,0.4195,0.4463,0.4298,0.388,0.3641,0.3511,0.3915,0.4243,0.4242,0.4241,0.424,0.4239,0.2715,0.274,0.2762,0.2801,0.2843,0.2856,0.2876,0.297,0.307,0.3224,0.3414,0.3632,0.3948,0.4353,0.4423,0.4457,0.4338,0.4311,0.4239,0.4061,0.3831,0.4311,0.4622,0.4622,0.4623,0.4624,0.4624,0,0.2795,0.2796,0.2852,0.2853,0.2868,0.2871,0.2918,0.292,0.2989,0.3206,0.3368,0.3694,0.3939,0.4145,0.4318,0.4215,0.3999,0.4094,0.3719,0.3627,0.4103,0.3968,0.4131,0.4132,0.4132,0.4132,0.4132,0.4132,0.2844,0.2872,0.2856,0.285,0.285,0.2802,0.2795,0.2811,0.2915,0.3073,0.3252,0.346,0.375,0.4011,0.3984,0.3915,0.3539,0.3493,0.3385,0.3644,0.3653,0.3662,0.3506,0.3571,0.357,0.2774,0.2767,0.2763]},{"header":{"parameterUnit":"m.s-1","parameterCategory":2,"la1":30.2991,"la2":30.254,"lo1":-89.0895,"lo2":-89.0444,"dy":0.0017,"dx":0.0017,"nx":28,"ny":28,"refTime":"2025-09-14T03:00:00:Z","depth":"0","parameterNumber":3,"parameterNumberName":"V-component_of_CURRENTS"},"data":[0,0,0,0,0,0,0,0,0,0,0,0,0,0,0,0,0,0,0,0,0,0,0,0,0,0,0,0,0,0,0,0,0,0,0,0,0,0,0,0,0,0,0,0,0,0,0,0,0,0,0,0,0,0,0,0,0,0,-0.1088,-0.1089,0,-0.1172,-0.1173,-0.1174,-0.1227,-0.1227,-0.1228,-0.1228,-0.1326,-0.1328,-0.133,0,0,0,0,0,0,0,0,0,0,0,0,0,-0.1025,-0.1026,-0.1088,-0.1089,-0.109,-0.1172,-0.1173,-0.1174,-0.1227,-0.1227,-0.1228,-0.1228,-0.1325,-0.1328,-0.133,0,0,0,0,0,0,0,0,0,0,0,0,0,-0.1074,-0.1026,-0.1087,-0.1127,-0.1132,-0.1172,-0.1173,-0.1174,-0.1227,-0.1227,-0.1228,-0.1229,-0.1324,-0.1328,-0.1331,-0.1339,0,0,-0.1341,-0.1342,0,0,0,0,0,0,0,0,-0.1071,-0.1076,-0.112,-0.1124,-0.113,-0.1191,-0.1187,-0.123,-0.1227,-0.1189,-0.1228,-0.1229,-0.1282,-0.1289,-0.1302,-0.1344,-0.1348,-0.1341,-0.1343,-0.1345,-0.1346,0,0,0,0,0,0,0,-0.1068,-0.1073,-0.112,-0.1121,-0.1127,-0.1159,-0.1166,-0.1196,-0.1231,-0.1193,-0.1197,-0.1208,-0.1285,-0.1298,-0.1304,-0.1349,-0.1341,-0.1344,-0.1346,-0.1347,-0.1411,-0.1411,0,0,0,0,0,0,-0.1056,-0.107,-0.1117,-0.1122,-0.1103,-0.1159,-0.1167,-0.1169,-0.123,-0.124,-0.1207,-0.121,-0.1292,-0.13,-0.1308,-0.1313,-0.1345,-0.1348,-0.135,-0.1412,-0.1411,-0.1411,0,0,0,0,0,0,-0.1054,-0.1059,-0.1114,-0.11,-0.1109,-0.1159,-0.1162,-0.1171,-0.1183,-0.1241,-0.1252,-0.121,-0.1293,-0.1303,-0.1332,-0.1318,-0.1349,-0.1352,-0.1412,-0.1411,-0.1411,-0.1329,0,0,0,0,0,0,-0.1052,-0.1058,-0.1057,-0.1098,-0.1109,-0.1126,-0.1162,-0.1172,-0.1189,-0.1194,-0.1247,-0.1257,-0.1294,-0.1327,-0.1336,-0.1323,-0.1355,-0.1412,-0.1412,-0.1411,-0.1332,-0.1326,-0.1321,0,0,0,0,0,-0.1049,-0.105,-0.1057,-0.1063,-0.1106,-0.1125,-0.1133,-0.1172,-0.1189,-0.1186,-0.1227,-0.1255,-0.133,-0.1329,-0.134,-0.1328,-0.1413,-0.1412,-0.1411,-0.1335,-0.1327,-0.1321,0,0,0,0,0,0,-0.1024,-0.1057,-0.1065,-0.1075,-0.1091,-0.1135,-0.1145,-0.1163,-0.1194,-0.1198,-0.1253,-0.1265,-0.1287,-0.1319,-0.1317,-0.1346,-0.1375,-0.1376,-0.1314,-0.1307,-0.1301,-0.1241,-0.1358,0,0,0,0,0,-0.1016,-0.1025,-0.1052,-0.1058,-0.1065,-0.1099,-0.1114,-0.113,-0.1163,-0.1177,-0.1217,-0.1259,-0.1292,-0.1307,-0.1344,-0.1356,-0.1327,-0.1356,-0.135,-0.1344,-0.1303,-0.1258,-0.1243,-0.1409,-0.1409,-0.1409,0,0,-0.1007,-0.1028,-0.1032,-0.1053,-0.1073,-0.1058,-0.1109,-0.1119,-0.1108,-0.1182,-0.119,-0.1242,-0.1293,-0.131,-0.1322,-0.1333,-0.1281,-0.1343,-0.1338,-0.1299,-0.1256,-0.1239,-0.1224,-0.1408,-0.1408,-0.1408,0,0,-0.0971,-0.1009,-0.0986,-0.1,-0.1017,-0.1036,-0.1031,-0.1063,-0.1081,-0.1095,-0.1147,-0.1176,-0.1237,-0.1258,-0.128,-0.1259,-0.1256,-0.1288,-0.1203,-0.1161,-0.1146,-0.1132,-0.106,-0.1041,-0.128,-0.128,-0.128,0,-0.0948,-0.0919,-0.0982,-0.096,-0.0953,-0.1015,-0.0966,-0.1002,-0.1038,-0.103,-0.1086,-0.1135,-0.1201,-0.1185,-0.1199,-0.1241,-0.1207,-0.1226,-0.1149,-0.1135,-0.1122,-0.1052,-0.1031,-0.1276,-0.1276,-0.1277,-0.1277,0,-0.0874,-0.0858,-0.0852,-0.0835,-0.0847,-0.0821,-0.0866,-0.0875,-0.0911,-0.0931,-0.0937,-0.1022,-0.1031,-0.1083,-0.1146,-0.1092,-0.1093,-0.1148,-0.1156,-0.1099,-0.103,-0.101,-0.127,-0.1271,-0.1273,-0.1274,0,0,-0.075,-0.0784,-0.0767,-0.0736,-0.0767,-0.0754,-0.0755,-0.0736,-0.0695,-0.0773,-0.0707,-0.0819,-0.0851,-0.0877,-0.0953,-0.0948,-0.0863,-0.101,-0.1009,-0.0916,-0.0732,-0.0711,-0.0687,-0.0905,-0.0902,-0.0899,-0.0714,0,-0.0635,-0.0566,-0.0616,-0.0535,-0.0491,-0.0562,-0.0544,-0.0558,-0.0586,-0.0555,-0.0639,-0.0625,-0.0777,-0.0769,-0.0791,-0.085,-0.0808,-0.0905,-0.0818,-0.0814,-0.0784,-0.0662,-0.0671,-0.0504,-0.0694,-0.0691,-0.0689,0,-0.0486,-0.0466,-0.0371,-0.0356,-0.0339,-0.0311,-0.0264,-0.0261,-0.0273,-0.0291,-0.0304,-0.037,-0.0384,-0.0518,-0.0538,-0.0593,-0.0634,-0.0686,-0.0681,-0.0665,-0.0754,-0.0597,-0.0461,-0.0719,-0.0658,-0.066,-0.0662,0,-0.0308,-0.0269,-0.0184,-0.0181,-0.019,-0.015,-0.0145,-0.0155,-0.0117,-0.0097,-0.0042,-0.0101,-0.0075,-0.017,-0.0315,-0.0406,-0.031,-0.0444,-0.044,-0.0438,-0.0426,-0.0429,-0.0506,-0.039,-0.0391,-0.0391,-0.0392,0,-0.0138,-0.0064,-0.0092,-0.0047,0.006,0.0007,0.0123,0.0106,0.0149,0.0244,0.0125,0.0217,0.0014,0.0008,-0.0168,-0.0211,-0.0177,-0.036,-0.037,-0.0399,-0.0402,-0.0615,-0.0766,-0.0384,-0.0386,-0.0387,-0.0388,0,0.0038,0.0026,0.011,0.0123,0.0141,0.0214,0.027,0.0353,0.0375,0.0509,0.0537,0.0516,0.0509,0.0327,0.0224,0.004,-0.0162,-0.0067,-0.0072,-0.0087,-0.0384,-0.0529,-0.0514,-0.0615,-0.0032,-0.003,-0.0028,0,0.0131,0.0191,0.0228,0.0275,0.0285,0.0375,0.0443,0.0467,0.0557,0.0697,0.0792,0.0849,0.0896,0.0769,0.0476,0.0276,0.0,0.0122,-0.0074,-0.0336,-0.0507,-0.0615,-0.0712,-0.0018,-0.0017,-0.0015,-0.0014,0,0.0276,0.028,0.0326,0.0413,0.0494,0.0587,0.0689,0.0798,0.0864,0.0999,0.1181,0.125,0.116,0.0979,0.0708,0.0494,-0.0068,0.0143,-0.0128,-0.0469,-0.0586,-0.071,-0.02,-0.0003,-0.0004,-0.0005,-0.0005,-0.0006,0.0359,0.0403,0.0443,0.0528,0.0634,0.0766,0.0858,0.1001,0.1177,0.1387,0.1461,0.1626,0.1352,0.0982,0.0672,0.0075,0.0058,-0.0167,-0.0301,-0.037,-0.0532,0.0029,0.0191,0.0191,0.0191,0.0191,0.0191,0,0.0401,0.044,0.0543,0.0634,0.0761,0.0797,0.0989,0.1098,0.1313,0.1588,0.1762,0.1783,0.1364,0.0886,0.0141,-0.0307,-0.053,-0.0581,-0.0792,-0.0859,-0.0348,-0.0423,-0.0387,-0.0387,-0.0387,-0.0386,-0.0386,-0.0386,0.0414,0.0483,0.0523,0.07,0.0792,0.0953,0.1057,0.1259,0.1472,0.181,0.1997,0.2124,0.1761,0.037,-0.0619,-0.0853,-0.1231,-0.1242,-0.1422,-0.1179,-0.1155,-0.1131,-0.1241,-0.1376,-0.1378,-0.1906,-0.1912,-0.1916]}],[{"header":{"parameterUnit":"m.s-1","parameterCategory":2,"la1":30.2991,"la2":30.254,"lo1":-89.0895,"lo2":-89.0444,"dy":0.0017,"dx":0.0017,"nx":28,"ny":28,"refTime":"2025-09-14T03:00:00:Z","depth":"2","parameterNumber":2,"parameterNumberName":"U-component_of_CURRENTS"},"data":[0,0,0,0,0,0,0,0,0,0,0,0,0,0,0,0,0,0,0,0,0,0,0,0,0,0,0,0,0,0,0,0,0,0,0,0,0,0,0,0,0,0,0,0,0,0,0,0,0,0,0,0,0,0,0,0,0,0,0.2062,0.2063,0,0.211,0.211,0.2111,0.2114,0.2114,0.2113,0.2113,0.2159,0.216,0.2161,0,0,0,0,0,0,0,0,0,0,0,0,0,0.1968,0.1969,0.2062,0.2063,0.2064,0.211,0.2111,0.2111,0.2114,0.2114,0.2113,0.2113,0.2158,0.216,0.2161,0,0,0,0,0,0,0,0,0,0,0,0,0,0.2008,0.197,0.2062,0.2074,0.2076,0.211,0.2111,0.2111,0.2114,0.2114,0.2113,0.2113,0.2158,0.216,0.2162,0.218,0,0,0.2168,0.2169,0,0,0,0,0,0,0,0,0.2005,0.2011,0.2071,0.2073,0.2075,0.2109,0.2094,0.2135,0.2114,0.2095,0.2113,0.2113,0.2145,0.2148,0.2152,0.2182,0.2184,0.2168,0.2169,0.217,0.2171,0,0,0,0,0,0,0,0.2003,0.2009,0.2077,0.2072,0.2075,0.2076,0.2081,0.2102,0.2118,0.2097,0.2098,0.211,0.2145,0.215,0.2153,0.2184,0.2168,0.217,0.2171,0.2172,0.2281,0.2283,0,0,0,0,0,0,0.2006,0.2006,0.2076,0.2079,0.2044,0.2078,0.2083,0.2095,0.2118,0.2122,0.211,0.211,0.2146,0.215,0.2155,0.2202,0.217,0.2172,0.2173,0.228,0.2282,0.2283,0,0,0,0,0,0,0.2003,0.2011,0.2074,0.2047,0.2055,0.208,0.2094,0.2097,0.2122,0.2129,0.2132,0.2136,0.2146,0.2152,0.2178,0.2203,0.2173,0.2175,0.2278,0.228,0.2283,0.2281,0,0,0,0,0,0,0.2,0.201,0.2029,0.2047,0.2057,0.2097,0.2094,0.2098,0.2131,0.2131,0.2151,0.2154,0.2146,0.2175,0.218,0.2205,0.2177,0.2275,0.2279,0.2282,0.2279,0.2283,0.2287,0,0,0,0,0,0.1997,0.2028,0.203,0.2039,0.2079,0.2098,0.2103,0.2117,0.2133,0.214,0.2153,0.2154,0.2199,0.2177,0.2183,0.2209,0.2274,0.2278,0.2281,0.2277,0.2282,0.2287,0,0,0,0,0,0,0.1993,0.2032,0.2034,0.2074,0.2085,0.21,0.2119,0.2135,0.2153,0.216,0.2166,0.2169,0.2204,0.2214,0.219,0.2254,0.2242,0.2247,0.2237,0.2242,0.2246,0.2263,0.2178,0,0,0,0,0,0.2002,0.2046,0.2056,0.2093,0.2093,0.211,0.2127,0.2136,0.2153,0.2163,0.2174,0.2197,0.2223,0.2236,0.2254,0.2286,0.2328,0.2313,0.2317,0.232,0.2341,0.2427,0.2441,0.2296,0.2296,0.2296,0,0,0.2002,0.2044,0.2059,0.2097,0.2104,0.2112,0.2119,0.2146,0.2179,0.2166,0.2209,0.2211,0.2236,0.2263,0.2282,0.2274,0.2382,0.2325,0.2327,0.2347,0.2433,0.2447,0.2459,0.2298,0.2298,0.2297,0,0,0.2019,0.2061,0.208,0.2096,0.2125,0.2139,0.2152,0.2167,0.2198,0.2232,0.2236,0.2253,0.2291,0.2303,0.232,0.2366,0.24,0.2378,0.2408,0.2491,0.2504,0.2515,0.2574,0.2591,0.2378,0.2378,0.2378,0,0.202,0.2061,0.2086,0.2104,0.213,0.2152,0.2162,0.2199,0.2228,0.2261,0.225,0.2313,0.2315,0.2371,0.2372,0.2375,0.2423,0.2379,0.2496,0.2508,0.252,0.2578,0.2597,0.2379,0.2379,0.2379,0.2379,0,0.2018,0.2069,0.2085,0.2122,0.214,0.2172,0.2203,0.2243,0.2284,0.2309,0.2374,0.2374,0.2418,0.2413,0.2401,0.2486,0.2492,0.2488,0.2478,0.2535,0.2592,0.2611,0.2379,0.2379,0.2379,0.2379,0,0,0.1988,0.2071,0.2077,0.2116,0.2167,0.2184,0.2249,0.2309,0.2379,0.2395,0.2488,0.2488,0.2494,0.2516,0.251,0.2555,0.2653,0.2555,0.2559,0.2604,0.2835,0.2764,0.2779,0.2673,0.2677,0.268,0.2835,0,0.1987,0.2042,0.2081,0.2142,0.2172,0.2229,0.2288,0.2346,0.2421,0.2513,0.2541,0.2621,0.2541,0.2583,0.2608,0.2658,0.2708,0.2611,0.2783,0.2788,0.2712,0.2801,0.2557,0.2669,0.2854,0.2857,0.286,0,0.197,0.2027,0.2075,0.2195,0.2205,0.2243,0.2366,0.2422,0.2546,0.261,0.2678,0.2733,0.2804,0.2752,0.2846,0.2793,0.2822,0.284,0.2847,0.2801,0.2755,0.2649,0.2698,0.2893,0.289,0.2888,0.2885,0,0.1952,0.204,0.2099,0.2127,0.2227,0.2281,0.2338,0.2443,0.2537,0.2703,0.2823,0.2876,0.2981,0.3002,0.3032,0.2969,0.3153,0.3078,0.3039,0.3034,0.2872,0.2846,0.3179,0.3179,0.3178,0.3178,0.3177,0,0.1972,0.2024,0.2102,0.2139,0.2225,0.2275,0.2391,0.2478,0.2626,0.2742,0.2879,0.3008,0.3062,0.3171,0.3128,0.3154,0.3241,0.3077,0.3085,0.2862,0.2834,0.306,0.3044,0.3184,0.3182,0.3181,0.318,0,0.1958,0.2011,0.209,0.2189,0.223,0.228,0.2433,0.2531,0.268,0.2864,0.2949,0.3165,0.326,0.3307,0.3375,0.3315,0.3326,0.3321,0.3043,0.3014,0.3118,0.31,0.3276,0.3275,0.3274,0.3274,0.3273,0,0.1985,0.2015,0.2107,0.2175,0.2236,0.2326,0.2414,0.2542,0.2636,0.2927,0.3016,0.324,0.3315,0.3422,0.334,0.3302,0.334,0.3112,0.2928,0.3145,0.3137,0.312,0.3104,0.2711,0.2706,0.2702,0.2699,0,0.2044,0.2048,0.2104,0.2186,0.229,0.2384,0.2498,0.2577,0.2727,0.2863,0.303,0.3138,0.327,0.3128,0.3156,0.3078,0.308,0.3025,0.3388,0.2712,0.2623,0.261,0.2611,0.2662,0.2666,0.2668,0.267,0.2672,0.209,0.2103,0.2142,0.2218,0.2324,0.2401,0.244,0.255,0.2627,0.2737,0.2854,0.2897,0.2965,0.2816,0.2741,0.2699,0.2856,0.2739,0.2748,0.2762,0.2657,0.257,0.258,0.2583,0.2585,0.2588,0.259,0,0.2106,0.2108,0.2191,0.224,0.2293,0.2363,0.2464,0.244,0.2458,0.2532,0.2545,0.2333,0.2303,0.237,0.2249,0.2271,0.2205,0.2184,0.2078,0.2119,0.2153,0.2012,0.1767,0.1764,0.1761,0.1759,0,0,0.2113,0.2123,0.2122,0.2169,0.2222,0.2227,0.2256,0.224,0.2236,0.2099,0.2043,0.2145,0.2308,0.1987,0.1964,0.1858,0.196,0.1782,0.2448,0.2364,0.2394,0.2489,0.232,0,0,0,0,0]},{"header":{"parameterUnit":"m.s-1","parameterCategory":2,"la1":30.2991,"la2":30.254,"lo1":-89.0895,"lo2":-89.0444,"dy":0.0017,"dx":0.0017,"nx":28,"ny":28,"refTime":"2025-09-14T03:00:00:Z","depth":"2","parameterNumber":3,"parameterNumberName":"V-component_of_CURRENTS"},"data":[0,0,0,0,0,0,0,0,0,0,0,0,0,0,0,0,0,0,0,0,0,0,0,0,0,0,0,0,0,0,0,0,0,0,0,0,0,0,0,0,0,0,0,0,0,0,0,0,0,0,0,0,0,0,0,0,0,0,0.0175,0.0174,0,0.0117,0.0116,0.0115,0.0064,0.0063,0.0063,0.0062,-0.0028,-0.0029,-0.0031,0,0,0,0,0,0,0,0,0,0,0,0,0,0.0188,0.0188,0.0175,0.0174,0.0174,0.0117,0.0116,0.0115,0.0064,0.0063,0.0062,0.0062,-0.0027,-0.0029,-0.0031,0,0,0,0,0,0,0,0,0,0,0,0,0,0.0161,0.0189,0.0175,0.0142,0.0138,0.0117,0.0116,0.0115,0.0064,0.0063,0.0062,0.0061,-0.0026,-0.0029,-0.0032,-0.0032,0,0,-0.004,-0.0041,0,0,0,0,0,0,0,0,0.0163,0.0161,0.0147,0.0144,0.014,0.0097,0.0088,0.0064,0.0064,0.0092,0.0062,0.0061,0.0012,0.0006,-0.0003,-0.0037,-0.004,-0.004,-0.0042,-0.0043,-0.0044,0,0,0,0,0,0,0,0.0165,0.0163,0.0151,0.0147,0.0142,0.0111,0.0107,0.0083,0.0056,0.0089,0.0085,0.008,0.001,-0.0,-0.0006,-0.0042,-0.004,-0.0043,-0.0045,-0.0046,-0.0085,-0.0085,0,0,0,0,0,0,0.0177,0.0165,0.0153,0.015,0.015,0.0112,0.0107,0.0111,0.0057,0.0048,0.0081,0.0078,0.0005,-0.0002,-0.0009,-0.0011,-0.0043,-0.0046,-0.0048,-0.0086,-0.0085,-0.0085,0,0,0,0,0,0,0.0178,0.0177,0.0156,0.0155,0.0151,0.0113,0.0118,0.0111,0.0098,0.0051,0.0041,0.0075,0.0004,-0.0005,-0.0027,-0.0015,-0.0047,-0.005,-0.0087,-0.0086,-0.0085,-0.0017,0,0,0,0,0,0,0.0178,0.0178,0.0181,0.0157,0.0151,0.0151,0.0118,0.011,0.0096,0.0092,0.0044,0.0034,0.0003,-0.0023,-0.003,-0.002,-0.0052,-0.0088,-0.0086,-0.0085,-0.002,-0.0014,-0.0008,0,0,0,0,0,0.0179,0.0194,0.0181,0.0179,0.0158,0.0152,0.0146,0.0115,0.0097,0.0099,0.0065,0.0036,-0.0021,-0.0024,-0.0033,-0.0023,-0.0088,-0.0087,-0.0085,-0.0023,-0.0015,-0.0009,0,0,0,0,0,0,0.0204,0.019,0.0175,0.0185,0.0171,0.0143,0.0141,0.0121,0.0095,0.0087,0.0042,0.0032,0.0017,-0.0011,-0.0014,-0.0031,-0.0058,-0.0059,-0.0008,-0.0001,0.0005,-0.0001,-0.0054,0,0,0,0,0,0.0211,0.0216,0.0197,0.0204,0.0201,0.0171,0.0162,0.0143,0.0119,0.0107,0.0076,0.0042,0.0017,0.0002,-0.0024,-0.0032,-0.0074,-0.0032,-0.0026,-0.0021,-0.0031,-0.0085,-0.0085,-0.008,-0.008,-0.008,0,0,0.0225,0.0214,0.0219,0.0209,0.0194,0.0198,0.0164,0.0158,0.0155,0.0102,0.0091,0.0061,0.002,0.0009,0.0,-0.0014,-0.0039,-0.0019,-0.0014,-0.0027,-0.0084,-0.0085,-0.0085,-0.0079,-0.0079,-0.0079,0,0,0.0256,0.0245,0.0259,0.0252,0.0235,0.0217,0.0219,0.0197,0.0181,0.0169,0.013,0.0106,0.0073,0.0044,0.0025,0.0047,-0.0006,0.0044,0.0066,0.0015,0.0013,0.0012,-0.002,-0.0026,0.0046,0.0046,0.0046,0,0.0269,0.0277,0.0262,0.0272,0.0265,0.0232,0.0242,0.0229,0.0201,0.0188,0.0175,0.0116,0.0088,0.0061,0.0071,0.0059,0.0023,0.0046,0.0021,0.0018,0.0015,-0.0017,-0.0024,0.005,0.0049,0.0049,0.0049,0,0.0307,0.0309,0.0318,0.0316,0.0316,0.0315,0.0299,0.0291,0.0267,0.0247,0.0216,0.0173,0.0134,0.013,0.0106,0.0077,0.0058,0.0036,0.0003,0.0019,-0.0016,-0.0024,0.0055,0.0053,0.0052,0.0052,0,0,0.0327,0.0342,0.034,0.0342,0.0332,0.0336,0.0338,0.0322,0.032,0.0286,0.0274,0.0229,0.0196,0.0171,0.0136,0.0095,0.0059,0.0061,0.0056,0.0029,-0.0048,-0.0077,-0.0089,0.0027,0.0026,0.0025,-0.0056,0,0.0345,0.038,0.0375,0.0393,0.0403,0.0379,0.039,0.0377,0.0352,0.034,0.0282,0.0259,0.0215,0.0199,0.0149,0.009,0.0037,0.0083,-0.0059,-0.0063,-0.0093,-0.0101,-0.0079,-0.0151,-0.0064,-0.0066,-0.0067,0,0.036,0.038,0.0416,0.0424,0.0428,0.0438,0.0432,0.0438,0.0414,0.0393,0.0347,0.0307,0.0253,0.0209,0.0086,0.0117,0.0032,-0.0025,-0.003,-0.0094,-0.011,-0.0158,-0.017,-0.0081,-0.008,-0.0079,-0.0078,0,0.0366,0.039,0.042,0.0425,0.0448,0.0453,0.0459,0.0452,0.0477,0.0425,0.0447,0.034,0.0333,0.0192,0.0087,0.0078,-0.0048,-0.0076,-0.0192,-0.0194,-0.0224,-0.0226,-0.0196,-0.0196,-0.0196,-0.0195,-0.0195,0,0.037,0.0386,0.0427,0.0442,0.048,0.0482,0.0519,0.0503,0.0519,0.0574,0.0482,0.0506,0.0329,0.0251,0.0101,-0.0056,-0.0044,-0.0199,-0.0226,-0.0196,-0.0195,-0.0177,-0.0174,-0.0198,-0.0198,-0.0197,-0.0197,0,0.0376,0.0399,0.0434,0.047,0.0488,0.0519,0.0586,0.0623,0.0625,0.0695,0.0692,0.0643,0.0513,0.0328,0.0124,0.0001,-0.0177,-0.0245,-0.0187,-0.0207,-0.0296,-0.0288,-0.0397,-0.0399,-0.04,-0.0402,-0.0403,0,0.0378,0.0401,0.0469,0.0509,0.0528,0.0586,0.0643,0.0666,0.0728,0.0797,0.0848,0.0753,0.0703,0.0396,0.0101,-0.0199,-0.0218,-0.0334,-0.0368,-0.0306,-0.0321,-0.031,-0.0301,-0.0368,-0.0369,-0.0369,-0.037,0,0.0382,0.0415,0.0463,0.0566,0.0628,0.0715,0.0797,0.0875,0.0939,0.1003,0.1079,0.1042,0.0737,0.0441,0.0035,-0.0159,-0.0294,-0.0358,-0.0316,-0.032,-0.0286,-0.0298,-0.0288,-0.0375,-0.0375,-0.0374,-0.0374,-0.0374,0.039,0.0441,0.0531,0.0633,0.0719,0.0858,0.0971,0.1073,0.1205,0.1313,0.123,0.117,0.0837,0.0285,-0.0031,-0.0362,-0.0373,-0.0461,-0.0456,-0.0451,-0.0433,-0.0404,-0.0511,-0.0511,-0.0511,-0.0512,-0.0512,0,0.0429,0.0511,0.0597,0.0752,0.0891,0.092,0.11,0.1236,0.1436,0.1405,0.1414,0.1059,0.0718,0.0341,-0.0157,-0.0445,-0.0454,-0.0522,-0.0462,-0.0456,-0.045,-0.0429,-0.0508,-0.0509,-0.0509,-0.0509,0,0,0.0458,0.0576,0.065,0.0898,0.1014,0.1235,0.1366,0.1533,0.158,0.1546,0.1438,0.1239,0.0802,0.045,0.0038,-0.0222,-0.0262,-0.0275,-0.0253,-0.0129,-0.0119,-0.0402,-0.0362,0,0,0,0,0]}],[{"header":{"parameterUnit":"m.s-1","parameterCategory":2,"la1":30.2991,"la2":30.254,"lo1":-89.0895,"lo2":-89.0444,"dy":0.0017,"dx":0.0017,"nx":28,"ny":28,"refTime":"2025-09-14T03:00:00:Z","depth":"4","parameterNumber":2,"parameterNumberName":"U-component_of_CURRENTS"},"data":[0,0,0,0,0,0,0,0,0,0,0,0,0,0,0,0,0,0,0,0,0,0,0,0,0,0,0,0,0,0,0,0,0,0,0,0,0,0,0,0,0,0,0,0,0,0,0,0,0,0,0,0,0,0,0,0,0,0,0.1086,0.1087,0,0.1159,0.116,0.116,0.119,0.119,0.1191,0.1191,0.1269,0.1271,0.1273,0,0,0,0,0,0,0,0,0,0,0,0,0,0.1009,0.1009,0.1086,0.1087,0.1089,0.1159,0.116,0.116,0.119,0.119,0.1191,0.1191,0.1269,0.1271,0.1273,0,0,0,0,0,0,0,0,0,0,0,0,0,0.1053,0.1009,0.1086,0.1115,0.1119,0.1159,0.116,0.116,0.119,0.119,0.1191,0.1191,0.1268,0.127,0.1273,0.1283,0,0,0.1282,0.1283,0,0,0,0,0,0,0,0,0.1051,0.1056,0.111,0.1114,0.1118,0.117,0.1161,0.1203,0.119,0.1158,0.1191,0.1191,0.1239,0.1244,0.1251,0.1286,0.129,0.1282,0.1284,0.1285,0.1286,0,0,0,0,0,0,0,0.1048,0.1053,0.111,0.1111,0.1116,0.1138,0.1144,0.1169,0.1192,0.1161,0.1165,0.118,0.1241,0.1248,0.1253,0.1291,0.1282,0.1284,0.1286,0.1287,0.1386,0.1387,0,0,0,0,0,0,0.1046,0.105,0.1108,0.1113,0.109,0.1139,0.1146,0.1149,0.1192,0.12,0.1179,0.1181,0.1243,0.1249,0.1256,0.1335,0.1285,0.1287,0.1289,0.1385,0.1387,0.1388,0,0,0,0,0,0,0.1043,0.1049,0.1105,0.1087,0.1097,0.114,0.1144,0.115,0.1187,0.1207,0.1214,0.1213,0.1243,0.1252,0.1299,0.1336,0.1289,0.1291,0.1384,0.1386,0.1387,0.1452,0,0,0,0,0,0,0.104,0.1048,0.1062,0.1087,0.1098,0.1146,0.1144,0.1152,0.1196,0.12,0.1238,0.1243,0.1244,0.1295,0.1302,0.1339,0.1293,0.1383,0.1385,0.1387,0.1448,0.1455,0.1461,0,0,0,0,0,0.1037,0.1051,0.1062,0.1071,0.1111,0.1148,0.1155,0.1184,0.1198,0.1217,0.1243,0.1244,0.1311,0.1299,0.1306,0.1345,0.1382,0.1384,0.1387,0.1446,0.1454,0.1461,0,0,0,0,0,0,0.1026,0.1056,0.1069,0.1092,0.1127,0.1155,0.1184,0.1203,0.1238,0.1251,0.1262,0.127,0.1326,0.1322,0.1308,0.1375,0.1345,0.1349,0.1387,0.1395,0.1402,0.1395,0.1296,0,0,0,0,0,0.103,0.1049,0.1082,0.1105,0.1126,0.1161,0.1186,0.1208,0.1238,0.1256,0.1281,0.1307,0.1336,0.1356,0.1378,0.1419,0.143,0.1445,0.1451,0.1457,0.1456,0.1502,0.1513,0.1395,0.1395,0.1395,0,0,0.1037,0.1055,0.1069,0.1106,0.1137,0.1167,0.1177,0.1225,0.1253,0.1259,0.1312,0.1338,0.1352,0.1397,0.1421,0.1403,0.15,0.146,0.1465,0.146,0.1506,0.1517,0.1528,0.1396,0.1396,0.1396,0,0,0.1048,0.1074,0.1093,0.1124,0.1176,0.1195,0.1216,0.1261,0.1289,0.134,0.1352,0.1396,0.144,0.1455,0.1467,0.152,0.1535,0.1534,0.1564,0.161,0.162,0.1629,0.1676,0.1689,0.1534,0.1534,0.1534,0,0.1056,0.1079,0.1107,0.1135,0.1168,0.121,0.1242,0.1273,0.1328,0.1358,0.1366,0.1453,0.1463,0.152,0.1531,0.1537,0.1568,0.1537,0.162,0.1629,0.1637,0.1683,0.1696,0.1538,0.1537,0.1537,0.1536,0,0.1077,0.1107,0.1127,0.1168,0.1204,0.1246,0.1289,0.1333,0.1375,0.1406,0.1489,0.1516,0.1568,0.1578,0.157,0.1639,0.1645,0.1628,0.1603,0.1653,0.1698,0.1711,0.1542,0.1541,0.154,0.1539,0,0,0.1061,0.1126,0.1136,0.1166,0.123,0.126,0.1314,0.1373,0.1423,0.1484,0.1553,0.1601,0.1638,0.1652,0.1668,0.1696,0.1778,0.1688,0.1689,0.174,0.1898,0.1762,0.1763,0.1788,0.179,0.1792,0.1912,0,0.1074,0.1119,0.1153,0.1212,0.1244,0.1302,0.1349,0.141,0.1469,0.1543,0.1597,0.1664,0.1662,0.1703,0.174,0.1769,0.1813,0.1748,0.1836,0.1838,0.1715,0.1772,0.1799,0.1922,0.1925,0.1927,0.1928,0,0.1084,0.1111,0.1164,0.124,0.1263,0.1308,0.1402,0.1455,0.1554,0.1601,0.1688,0.1733,0.1809,0.1788,0.1893,0.1861,0.1886,0.19,0.1905,0.1758,0.1724,0.1856,0.1951,0.1949,0.1947,0.1946,0.1945,0,0.1054,0.1126,0.1168,0.1195,0.128,0.1328,0.1387,0.1482,0.1539,0.1651,0.171,0.1809,0.1877,0.1929,0.1967,0.1947,0.2066,0.204,0.195,0.1942,0.2001,0.1989,0.211,0.211,0.211,0.211,0.2109,0,0.1046,0.1082,0.1165,0.1188,0.1245,0.1329,0.1418,0.1475,0.1594,0.1663,0.1754,0.1816,0.1915,0.199,0.201,0.2022,0.2115,0.1964,0.1962,0.2027,0.2017,0.2011,0.1998,0.2114,0.2113,0.2112,0.2111,0,0.0994,0.1057,0.1099,0.1193,0.123,0.1275,0.1413,0.1475,0.1597,0.1695,0.1734,0.1854,0.1942,0.2026,0.211,0.2067,0.2086,0.2066,0.2149,0.2149,0.1928,0.1917,0.1984,0.198,0.1977,0.1974,0.1972,0,0.0956,0.0978,0.1073,0.1099,0.1145,0.124,0.1302,0.1445,0.1514,0.1693,0.1723,0.1855,0.1923,0.196,0.2031,0.2084,0.2053,0.2058,0.1965,0.1922,0.1915,0.1909,0.1903,0.1967,0.1966,0.1965,0.1964,0,0.0865,0.0917,0.0954,0.1006,0.1073,0.1136,0.1246,0.1294,0.1469,0.1602,0.1679,0.1731,0.1829,0.1882,0.1941,0.1962,0.2046,0.2024,0.203,0.1942,0.1902,0.1897,0.1894,0.1953,0.1955,0.1956,0.1956,0,0.0786,0.079,0.0852,0.0901,0.0969,0.1006,0.1086,0.1193,0.1287,0.1514,0.153,0.1676,0.1807,0.182,0.1864,0.1884,0.1852,0.1786,0.1803,0.1817,0.17,0.1621,0.1592,0,0,0,0,0,0.0698,0.0711,0.0737,0.079,0.0858,0.0902,0.1032,0.113,0.1326,0.1347,0.1445,0.1527,0.1601,0.1663,0.1651,0.1769,0.1842,0.1745,0.1769,0.1891,0.1904,0.1778,0,0,0,0,0,0,0.064,0.0662,0.0697,0.0694,0.072,0.078,0.086,0.0988,0.1026,0.1228,0.1279,0.1427,0.152,0.1598,0.1619,0.1641,0.1623,0.1847,0.1843,0.1883,0.1895,0.1905,0.1781,0,0,0,0,0]},{"header":{"parameterUnit":"m.s-1","parameterCategory":2,"la1":30.2991,"la2":30.254,"lo1":-89.0895,"lo2":-89.0444,"dy":0.0017,"dx":0.0017,"nx":28,"ny":28,"refTime":"2025-09-14T03:00:00:Z","depth":"4","parameterNumber":3,"parameterNumberName":"V-component_of_CURRENTS"},"data":[0,0,0,0,0,0,0,0,0,0,0,0,0,0,0,0,0,0,0,0,0,0,0,0,0,0,0,0,0,0,0,0,0,0,0,0,0,0,0,0,0,0,0,0,0,0,0,0,0,0,0,0,0,0,0,0,0,0,0.0191,0.019,0,0.0156,0.0156,0.0155,0.0128,0.0127,0.0127,0.0127,0.0059,0.0058,0.0056,0,0,0,0,0,0,0,0,0,0,0,0,0,0.0198,0.0199,0.0191,0.019,0.019,0.0156,0.0156,0.0155,0.0128,0.0127,0.0127,0.0127,0.006,0.0058,0.0056,0,0,0,0,0,0,0,0,0,0,0,0,0,0.0182,0.0199,0.0191,0.0172,0.017,0.0156,0.0156,0.0155,0.0128,0.0127,0.0127,0.0127,0.006,0.0058,0.0056,0.0048,0,0,0.0048,0.0047,0,0,0,0,0,0,0,0,0.0183,0.0182,0.0176,0.0174,0.0171,0.0146,0.0134,0.0118,0.0128,0.0143,0.0127,0.0127,0.0086,0.0081,0.0075,0.0045,0.0042,0.0048,0.0047,0.0046,0.0045,0,0,0,0,0,0,0,0.0185,0.0183,0.0177,0.0175,0.0173,0.0154,0.0152,0.0131,0.0116,0.0142,0.014,0.0137,0.0084,0.0078,0.0074,0.0041,0.0048,0.0046,0.0045,0.0044,-0.0003,-0.0003,0,0,0,0,0,0,0.0192,0.0185,0.0178,0.0176,0.0177,0.0155,0.0152,0.0154,0.0117,0.0111,0.0138,0.0136,0.0082,0.0076,0.0071,0.0068,0.0046,0.0044,0.0042,-0.0003,-0.0003,-0.0003,0,0,0,0,0,0,0.0192,0.0192,0.0179,0.0179,0.0176,0.0155,0.0158,0.0154,0.0149,0.0114,0.0107,0.0138,0.0082,0.0074,0.0054,0.0065,0.0042,0.004,-0.0003,-0.0003,-0.0003,0.0057,0,0,0,0,0,0,0.0193,0.0193,0.0199,0.018,0.0177,0.0173,0.0158,0.0153,0.0148,0.0146,0.0112,0.0105,0.0081,0.0058,0.0052,0.0061,0.0038,-0.0003,-0.0003,-0.0003,0.0055,0.006,0.0064,0,0,0,0,0,0.0193,0.0204,0.02,0.0199,0.0186,0.0174,0.017,0.0153,0.0149,0.0148,0.0126,0.0106,0.0056,0.0056,0.0049,0.0058,-0.0004,-0.0003,-0.0003,0.0053,0.0059,0.0063,0,0,0,0,0,0,0.021,0.0202,0.0197,0.0204,0.0191,0.0169,0.017,0.0159,0.0142,0.0141,0.0108,0.0099,0.0084,0.0062,0.0064,0.0045,0.0023,0.0022,0.0068,0.0073,0.0077,0.009,0.0036,0,0,0,0,0,0.0218,0.0227,0.0209,0.0217,0.0212,0.0193,0.0187,0.0176,0.0157,0.015,0.0127,0.0102,0.008,0.007,0.0044,0.0037,-0.0005,0.0037,0.0042,0.0046,0.005,0.0,0.0,-0.0001,-0.0001,-0.0001,0,0,0.0226,0.0225,0.0229,0.0222,0.0212,0.0214,0.0189,0.0184,0.0189,0.0145,0.0145,0.0113,0.0079,0.0068,0.006,0.0053,0.002,0.0046,0.005,0.0052,0.0001,0.0001,0.0001,-0.0001,-0.0001,-0.0001,0,0,0.0249,0.0246,0.0259,0.0254,0.0244,0.0232,0.0233,0.0213,0.0207,0.0199,0.0169,0.0147,0.0116,0.0096,0.0082,0.0094,0.004,0.0084,0.0121,0.0073,0.0073,0.0072,0.0004,-0.0003,0.0092,0.0092,0.0092,0,0.026,0.0273,0.026,0.0271,0.0272,0.0245,0.0255,0.0248,0.0225,0.0221,0.0205,0.0156,0.013,0.0116,0.0123,0.0105,0.0058,0.0108,0.0079,0.0077,0.0075,0.0006,-0.0002,0.0095,0.0094,0.0094,0.0094,0,0.0288,0.03,0.0307,0.0316,0.0315,0.0318,0.0306,0.0304,0.0291,0.0275,0.0253,0.0212,0.0182,0.0173,0.0154,0.0134,0.0097,0.0086,0.0069,0.0079,0.0005,-0.0005,0.0099,0.0098,0.0097,0.0096,0,0,0.0301,0.0324,0.0326,0.0337,0.0339,0.0337,0.0354,0.0348,0.0351,0.0325,0.0315,0.0286,0.0253,0.0234,0.0201,0.0168,0.0115,0.013,0.0126,0.0067,-0.0014,-0.0016,-0.0028,0.0096,0.0095,0.0095,-0.0066,0,0.0324,0.0356,0.0363,0.0389,0.0397,0.0392,0.0408,0.0403,0.0384,0.0366,0.0326,0.0297,0.028,0.0257,0.0224,0.0137,0.0093,0.0158,-0.0019,-0.0025,-0.0024,-0.0037,0.0091,-0.0073,-0.0076,-0.0078,-0.0079,0,0.0337,0.036,0.0394,0.042,0.0424,0.0442,0.045,0.0461,0.0438,0.042,0.0388,0.0341,0.0291,0.0268,0.0138,0.0177,0.0092,0.0025,0.0017,-0.001,-0.0045,-0.0085,-0.0098,-0.0097,-0.0095,-0.0094,-0.0093,0,0.0334,0.0373,0.0403,0.0414,0.0444,0.0465,0.048,0.0476,0.0486,0.0446,0.0428,0.0359,0.0307,0.021,0.0085,0.0101,-0.0076,-0.0077,-0.0163,-0.0166,-0.0143,-0.014,-0.0173,-0.0172,-0.0172,-0.0172,-0.0171,0,0.034,0.0361,0.0408,0.0424,0.0466,0.0479,0.0513,0.0514,0.051,0.0514,0.0454,0.0419,0.0289,0.0178,0.0073,-0.008,-0.0092,-0.0165,-0.0203,-0.0117,-0.0109,-0.0152,-0.0147,-0.0178,-0.0176,-0.0175,-0.0174,0,0.0325,0.0353,0.0394,0.0446,0.0466,0.0497,0.0552,0.0573,0.0559,0.0555,0.0542,0.0442,0.0296,0.0155,-0.0032,-0.0103,-0.0245,-0.0298,-0.0216,-0.0247,-0.0305,-0.0295,-0.0413,-0.0415,-0.0416,-0.0417,-0.0418,0,0.032,0.034,0.0416,0.0454,0.0484,0.0537,0.058,0.0598,0.0617,0.0571,0.0562,0.0422,0.0342,0.0072,-0.0075,-0.0296,-0.031,-0.0391,-0.0319,-0.0302,-0.0328,-0.0317,-0.0306,-0.0419,-0.042,-0.042,-0.042,0,0.0321,0.0354,0.0402,0.0477,0.0534,0.0589,0.0643,0.0657,0.0668,0.0654,0.0575,0.0439,0.0263,0.007,-0.0112,-0.0258,-0.0337,-0.0403,-0.0401,-0.0334,-0.031,-0.0333,-0.0321,-0.0424,-0.0423,-0.0423,-0.0423,0,0.0338,0.037,0.044,0.0504,0.0572,0.0619,0.0648,0.0668,0.0681,0.0639,0.0604,0.0429,0.0324,0.0085,-0.0077,-0.0228,-0.0251,-0.0274,-0.0279,-0.0276,-0.0172,-0.0119,-0.0213,0,0,0,0,0,0.0356,0.0396,0.046,0.0531,0.0594,0.063,0.0682,0.0704,0.071,0.067,0.0643,0.0489,0.024,0.0121,-0.003,-0.0105,-0.0287,-0.0286,-0.0317,-0.0446,-0.0441,-0.034,0,0,0,0,0,0,0.037,0.0436,0.0463,0.0538,0.0584,0.065,0.0683,0.0689,0.0666,0.065,0.0518,0.0463,0.0215,0.0328,-0.0031,-0.008,-0.0116,-0.0402,-0.0405,-0.0448,-0.0444,-0.044,-0.0335,0,0,0,0,0]}]]